Location: Newark
(48.5156°N, 1.8989°W)
Time: 07:39:36
(UTC+00:00)

Transit 4A - Pass Details

Date: 30 November 2019
Orbit: 870 x 975 km, 66.8° (Epoch: 07 December)

Event Time Altitude Azimuth Distance (km) Brightness Sun altitude
Exits shadow 03:37:26 22° 120° (ESE) 1,804 9.7 -38.7°
Drops below altitude 10° 03:39:28 10° 128° (SE) 2,515 10.5 -38.4°
Sets 03:41:58 0° 132° (SE) 3,447 11.3 -38.0°
